Regional Weather Roundup
Issued by NWS

Home | Current Version | Previous Version | Text Only | Print | Product List | Glossary On
Versions: 1 2 3 4 5 6 7 8 9 10 11 12 13 14 15 16 17 18 19 20 21 22 23 24 25 26 27 28 29 30 31 32 33 34 35 36 37 38 39 40 41 42 43 44 45 46 47 48 49 50
000
ASUS42 KTBW 070116
RWRFL
FLORIDA REGIONAL WEATHER ROUNDUP
NATIONAL WEATHER SERVICE TAMPA BAY RUSKIN FL
900 PM EDT WED MAY 06 2015

NOTE: "FAIR" INDICATES FEW OR NO CLOUDS BELOW 12,000 FEET WITH NO
SIGNIFICANT WEATHER AND/OR OBSTRUCTIONS TO VISIBILITY.


FLZ001>010-012>015-112-114-115-070200-
PANHANDLE FLORIDA

CITY           SKY/WX    TMP DP  RH WIND       PRES   REMARKS
PENSACOLA      CLEAR     73  64  73 SW5       30.05S
PENSACOLA NAS  PTCLDY    70  66  87 CALM      30.04F
MILTON NAS     PTCLDY    73  59  61 SW5       30.05
CRESTVIEW      CLOUDY    77  61  57 W3        30.06S
DUKE FIELD     PTCLDY    75  61  60 S3        30.05S
VALPARAISO     PTCLDY    74  62  65 SW1       30.04S
MARY ESTHER    CLEAR     74  64  71 SW2       30.04S
PANAMA CITY    FAIR      72  66  81 S5        30.05R
TYNDALL AFB    PTCLDY    73  67  81 W5        30.06R
APALACHICOLA   MOCLDY    76  66  71 W5        30.05R

STATION/POSITION SKY/WX   TEMP    WIND        PRES    WAVE   SWELL
                          AIR SEA DIR/SP/G            HT/PER HT/PER
                          (F)     (DEG/KT/KT) (MB)    (FT/S) (FT/S)
30.1N   87.6W              74 76  170/  6/  8 1016.8S   3/ 6   3/ 6
29.2N   88.2W              74 76  120/ 12/ 12 1017.6S   4/ 6   3/ 6
28.8N   86.0W              73 76  120/  2/  2 1017.9R   2/ 5   2/ 5
PANAMA CITY BEAC           74 78  220/  8/  9 1017.7R
CAPE SAN BLAS    NOT AVBL
TOWER C                    73     290/ 10/ 11 1017.4R
28.5N   84.5W              74 76  330/  6/  8 1017.5R   2/ 4   2/ 8

$$
FLZ011-016>038-118-127-128-134-139-239-070200-
NORTH FLORIDA

CITY           SKY/WX    TMP DP  RH WIND       PRES   REMARKS
MARIANNA       CLEAR     77  60  55 E3        30.05R
TALLAHASSEE    PTCLDY    80  58  46 N3        30.05R
PERRY          CLEAR     75  64  67 E3        30.06R
CROSS CITY       N/A     76  63  64 E7        30.05R
LAKE CITY      FAIR      70  63  78 E3        30.07S
GAINESVILLE    PTCLDY    70  63  78 E5        30.06R
MAYPORT NAS    CLOUDY    72  65  78 NE14      30.06S
JACKSONVILLE   MOCLDY    70  64  81 NE6       30.07S
JAX NAS        MOCLDY    76  64  66 NE12      30.07S
JAX CRAIG      CLOUDY    72  64  76 NE6       30.07R
JAX CECIL      PTCLDY    70  64  83 CALM      30.07S
FERNANDINA BEA MOCLDY    75  64  69 NE9       30.05F
ST AUGUSTINE   MOCLDY    71  66  84 NE6       30.07S

STATION/POSITION SKY/WX   TEMP    WIND        PRES    WAVE   SWELL
                          AIR SEA DIR/SP/G            HT/PER HT/PER
                          (F)     (DEG/KT/KT) (MB)    (FT/S) (FT/S)
SHELL POINT                82      30/  4/  5   N/A
KEATON BEACH               75      80/  6/  7 1017.6R
CEDAR KEY                  74      10/  4/  4 1017.7R
FERNANDINA                 72 75   60/  5/ 10 1017.5R
30.7N   81.3W                 71                N/A     6/ 8   2/11
MAYPORT                    72 74   50/ 14/ 16 1018.1R
31.4N   80.9W              70 70   50/ 12/ 16 1018.3R   7/ 8   5/ 8
ST AUGUSTINE               70 73   30/ 11/ 12 1018.3S

$$
FLZ040-043>046-052-053-057-058-063-144-070200-
INTERIOR CENTRAL FLORIDA

CITY           SKY/WX    TMP DP  RH WIND       PRES   REMARKS
OCALA          PTCLDY    73  63  68 NE7       30.05R
THE VILLAGES     N/A     73  68  83 N8        29.95R
LEESBURG       MOCLDY    75  65  70 NE12      30.04R
SANFORD        PTCLDY    72  66  81 N12       30.03S
ORLANDO EXEC   PTCLDY    74  65  73 NE12      30.03S
ORLANDO INTL   MOCLDY    74  68  81 E10       30.02F
KISSIMMEE      PTCLDY    75  68  78 NE10      30.03R
WINTER HAVEN   MOCLDY    78  65  63 E7        30.03R
LAKELAND       MOCLDY    73  68  83 CALM      30.03R
BARTOW         FAIR      75  64  69 E3        30.03R
OKEECHOBEE     CLEAR     70  63  78 CALM      30.03R

$$
FLZ041-047-054-059-064-141-147-070200-
EAST CENTRAL FLORIDA

CITY           SKY/WX    TMP DP  RH WIND       PRES   REMARKS
DAYTONA BEACH  MOCLDY    72  67  84 N8        30.05S
DELAND           N/A     72  66  83 N6        30.06S
JFK SPACE CTR  MOCLDY    72  67  85 N10       30.02S
TITUSVILLE     MOCLDY    72  72 100 N12       30.04R
CAPE CANAVERAL MOCLDY    72  68  88 N7        30.02S
PATRICK AFB    PTCLDY    72  67  85 N10       30.02R
MELBOURNE      PTCLDY    72  66  81 N9        30.02R
VERO BEACH     PTCLDY    71  65  81 NE3       30.03R
FT PIERCE      CLEAR     70  66  87 CALM      30.03R
STUART         CLEAR     72  64  78 N5        30.04S

STATION/POSITION SKY/WX   TEMP    WIND        PRES    WAVE   SWELL
                          AIR SEA DIR/SP/G            HT/PER HT/PER
                          (F)     (DEG/KT/KT) (MB)    (FT/S) (FT/S)
28.5N   80.2W              74 77  340/ 12/ 14 1016.3R
28.9N   78.5W              73 77  330/ 17/ 21 1014.2R
TRIDENT PIER               71 76   20/  3/  5 1017.0R
28.4N   80.5W                 76                N/A     4/ 8   2/11
27.5N   80.2W                 77                N/A     4/ 9   2/11

$$
FLZ050-056-061-142-242-148-248-149-249-151-251-155-255-
160-260-070200-
WEST CENTRAL FLORIDA

CITY           SKY/WX    TMP DP  RH WIND       PRES   REMARKS
CRYSTAL RIVER  CLOUDY    70  68  94 CALM      30.04S
INVERNESS      CLOUDY   N/A N/A N/A CALM      30.05R
BROOKSVILLE    PTCLDY    73  65  75 N3        30.04R
CLEARWATER     CLEAR     75  67  76 N6        30.03R
TAMPA INTL     PTCLDY    77  64  64 NW6       30.03R
TAMPA EXEC     MOCLDY    77  64  65 CALM      30.03R
PLANT CITY     PTCLDY    73  70  88 S3        30.04S
MACDILL AFB    CLEAR     76  67  73 N3        30.02R
PETER O KNIGHT CLEAR     79  66  65 N3        30.03S
ST PETERSBURG  CLEAR     77  66  68 N9        30.01R
SARASOTA       CLEAR     75  67  76 NW8       30.01R
VENICE         FAIR      77  68  73 NW10      30.03R

STATION/POSITION SKY/WX   TEMP    WIND        PRES    WAVE   SWELL
                          AIR SEA DIR/SP/G            HT/PER HT/PER
                          (F)     (DEG/KT/KT) (MB)    (FT/S) (FT/S)
CEDAR KEY                  74      10/  4/  4 1017.7R
28.5N   84.5W              74 76  330/  6/  8 1017.5R   2/ 4   2/ 8
27.3N   84.2W                 78                N/A     2/ 5
CLEARWATER BEACH           76 79  350/ 13/ 16 1016.6R
MIDDLE TAMPA BAY           78     330/ 11/ 13 1016.4R
VENICE                     77 80  330/ 13/ 14 1016.5R

$$
FLZ066-069-070-075>078-162-262-165-265-070200-
SOUTHWEST FLORIDA AND KEYS

CITY           SKY/WX    TMP DP  RH WIND       PRES   REMARKS
PUNTA GORDA    CLEAR     77  66  68 W7        30.03R
FT MYERS       PTCLDY    78  69  73 NW5       30.01R
SOUTHWEST INTL CLOUDY    79  67  66 NW3       30.03R
NAPLES         PTCLDY    78  70  76 NW6       30.02R
MARCO ISLAND   MOCLDY    79  66  65 N5        30.03R
IMMOKALEE      PTCLDY    72 N/A N/A CALM      30.03R
MARATHON       PTCLDY    77  71  82 NE6       30.03R
KEY WEST NAS   CLEAR     77  67  71 N7        30.02R
KEY WEST INTL  CLEAR     77  68  73 N5        30.03R

STATION/POSITION SKY/WX   TEMP    WIND        PRES    WAVE   SWELL
                          AIR SEA DIR/SP/G            HT/PER HT/PER
                          (F)     (DEG/KT/KT) (MB)    (FT/S) (FT/S)
VENICE                     77 80  330/ 13/ 14 1016.5R
NAPLES                     78 80  300/  8/  9 1016.0R
26.0N   85.6W              77 81   90/  8/ 10 1016.8R   3/ 6   3/ 6
DRY TORTUGAS               77      60/  5/  5 1016.5R
NW FL BAY                  78     360/  6/  8 1016.6
SAND KEY                   77      20/  6/  8 1016.7R
SOMBRERO KEY               77      40/  3/  4 1017.6R
LONG KEY                   77 78   50/  4/  4 1017.9R
MOLASSES REEF              77 79   90/  5/  6 1017.2R

$$
FLZ067-068-071>074-168-172>174-070200-
SOUTHEAST FLORIDA

CITY           SKY/WX    TMP DP  RH WIND       PRES   REMARKS
W PALM BEACH   PTCLDY    74  66  76 NE3       30.04R
FT LAUDER-EXEC CLEAR     75  66  73 NE3       30.03R
FT LAUDERDALE  PTCLDY    73  66  78 NE7       30.02R
POMPANO BEACH  CLEAR     75  65  70 CALM      30.02R
PEMBROKE PINES CLEAR     75  65  70 NE6       30.04R
OPA LOCKA      CLEAR     76  66  71 E9        30.03R
MIAMI          CLEAR     77  65  66 NE8       30.02S
WEST KENDALL   CLEAR     74  65  73 E7        30.03R
HOMESTEAD      CLEAR     75  67  74 NE7       30.02S

STATION/POSITION SKY/WX   TEMP    WIND        PRES    WAVE   SWELL
                          AIR SEA DIR/SP/G            HT/PER HT/PER
                          (F)     (DEG/KT/KT) (MB)    (FT/S) (FT/S)
PORT EVERGLADES            76      40/  5/  8 1016.7R
VIRGINIA KEY               76 78   40/  7/ 12 1016.1S
LAKE WORTH                 75 78   30/  6/  8 1015.8F
SETTLEMENT POINT           74     360/ 14/ 15 1017.3R

$$




USA.gov is the U.S. government's official web portal to all federal, state and local government web resources and services.